Location: Home
(42.5358°N, 72.7383°W)
Time: 11:41:44
(UTC-05:00)

Tiros 1 - Pass Details

Date: 08 December 2021
Orbit: 629 x 664 km, 48.4° (Epoch: 26 January)

Event Time Altitude Azimuth Distance (km) Brightness Sun altitude
Rises 16:57:02 0° 241° (WSW) 2,906 13.1 -7.3°
Reaches altitude 10° 16:59:20 10° 241° (WSW) 2,003 11.4 -7.6°
Maximum altitude 17:03:57 88° 156° (SSE) 638 7.1 -8.4°
Enters shadow 17:08:19 12° 64° (ENE) 1,905 8.9 -9.2°
Drops below altitude 10° 17:08:38 10° 64° (ENE) 2,026 - -9.2°
Sets 17:10:58 0° 64° (ENE) 2,943 - -9.6°
